TimeEST,TemperatureF,Dew PointF,Humidity,Sea Level PressureIn,VisibilityMPH,Wind Direction,Wind SpeedMPH,Gust SpeedMPH,PrecipitationIn,Events,Conditions,WindDirDegrees,DateUTC
12:14 AM,60.4,45.5,58,30.03,10.0,SSW,9.2,17.3,N/A,,Clear,200,2012-11-11 05:14:00
12:35 AM,60.3,45.7,59,30.03,10.0,SSW,11.5,19.6,N/A,,Clear,210,2012-11-11 05:35:00
12:54 AM,60.6,45.5,57,30.03,10.0,SSW,11.5,18.4,N/A,,Clear,200,2012-11-11 05:54:00
1:15 AM,60.1,45.5,59,30.04,10.0,SSW,13.8,19.6,N/A,,Clear,210,2012-11-11 06:15:00
1:35 AM,59.9,45.1,58,30.04,10.0,SSW,13.8,19.6,N/A,,Clear,200,2012-11-11 06:35:00
1:54 AM,59.7,44.8,58,30.04,10.0,SSW,11.5,18.4,N/A,,Clear,200,2012-11-11 06:54:00
2:15 AM,59.5,44.6,58,30.04,10.0,SSW,6.9,-,N/A,,Clear,200,2012-11-11 07:15:00
2:34 AM,59.4,44.4,58,30.04,10.0,South,9.2,-,N/A,,Clear,190,2012-11-11 07:34:00
2:55 AM,59.0,44.2,58,30.05,10.0,SSW,9.2,18.4,N/A,,Clear,200,2012-11-11 07:55:00
3:15 AM,59.0,43.7,57,30.05,10.0,South,9.2,18.4,N/A,,Clear,190,2012-11-11 08:15:00
3:34 AM,59.2,43.3,56,30.05,10.0,South,11.5,18.4,N/A,,Clear,190,2012-11-11 08:34:00
3:55 AM,58.6,43.2,56,30.06,10.0,SSW,10.4,18.4,N/A,,Clear,200,2012-11-11 08:55:00
4:14 AM,58.3,43.0,57,30.06,10.0,SSW,10.4,19.6,N/A,,Clear,200,2012-11-11 09:14:00
4:34 AM,57.7,43.0,58,30.07,10.0,South,9.2,-,N/A,,Clear,180,2012-11-11 09:34:00
4:55 AM,57.2,43.0,59,30.07,10.0,South,9.2,-,N/A,,Clear,190,2012-11-11 09:55:00
5:14 AM,57.2,42.8,59,30.08,10.0,South,8.1,-,N/A,,Clear,190,2012-11-11 10:14:00
5:34 AM,56.8,42.8,59,30.09,10.0,South,6.9,-,N/A,,Clear,190,2012-11-11 10:34:00
5:55 AM,56.1,42.8,61,30.09,10.0,South,8.1,-,N/A,,Clear,190,2012-11-11 10:55:00
6:34 AM,55.4,42.4,62,30.09,10.0,South,11.5,-,N/A,,Clear,180,2012-11-11 11:34:00
6:55 AM,54.7,42.4,63,30.09,10.0,South,9.2,17.3,N/A,,Clear,180,2012-11-11 11:55:00
7:14 AM,54.9,42.4,63,30.09,10.0,South,9.2,-,N/A,,Clear,180,2012-11-11 12:14:00
7:34 AM,55.0,42.3,62,30.08,10.0,South,8.1,-,N/A,,Clear,180,2012-11-11 12:34:00
7:55 AM,55.6,42.6,62,30.09,10.0,South,10.4,-,N/A,,Clear,170,2012-11-11 12:55:00
8:34 AM,55.8,42.4,61,30.08,10.0,South,9.2,16.1,N/A,,Clear,180,2012-11-11 13:34:00
9:14 AM,56.3,42.6,60,30.08,10.0,South,11.5,17.3,N/A,,Clear,180,2012-11-11 14:14:00
9:35 AM,57.0,42.8,59,30.08,10.0,South,8.1,17.3,N/A,,Clear,180,2012-11-11 14:35:00
9:55 AM,59.2,43.7,57,30.08,10.0,South,12.7,20.7,N/A,,Clear,180,2012-11-11 14:55:00
10:35 AM,63.0,45.1,52,30.08,10.0,South,15.0,25.3,N/A,,Clear,190,2012-11-11 15:35:00
10:54 AM,63.9,45.9,52,30.08,10.0,South,13.8,23.0,N/A,,Clear,190,2012-11-11 15:54:00
11:14 AM,64.2,45.9,51,30.06,10.0,South,13.8,26.5,N/A,,Clear,190,2012-11-11 16:14:00
11:35 AM,64.2,46.0,52,30.06,10.0,South,16.1,28.8,N/A,,Clear,190,2012-11-11 16:35:00
11:54 AM,65.7,46.6,50,30.04,10.0,South,17.3,25.3,N/A,,Clear,190,2012-11-11 16:54:00
12:14 PM,66.0,46.8,50,30.03,10.0,South,11.5,28.8,N/A,,Clear,180,2012-11-11 17:14:00
12:35 PM,65.1,46.4,51,30.02,10.0,South,10.4,23.0,N/A,,Clear,190,2012-11-11 17:35:00
1:14 PM,67.8,47.5,48,30.00,10.0,SSW,20.7,28.8,N/A,,Clear,200,2012-11-11 18:14:00
1:35 PM,68.4,47.3,47,29.99,10.0,South,17.3,29.9,N/A,,Clear,190,2012-11-11 18:35:00
1:54 PM,68.2,46.9,47,29.99,10.0,South,15.0,26.5,N/A,,Clear,180,2012-11-11 18:54:00
2:14 PM,68.2,46.4,46,29.97,10.0,South,13.8,29.9,N/A,,Clear,190,2012-11-11 19:14:00
2:34 PM,68.4,46.6,46,29.97,10.0,South,17.3,28.8,N/A,,Clear,190,2012-11-11 19:34:00
2:54 PM,68.2,46.2,45,29.96,10.0,South,18.4,24.2,N/A,,Clear,180,2012-11-11 19:54:00
3:15 PM,68.0,46.4,46,29.96,10.0,South,12.7,24.2,N/A,,Clear,190,2012-11-11 20:15:00
3:34 PM,68.4,46.9,46,29.96,10.0,SSW,15.0,26.5,N/A,,Clear,200,2012-11-11 20:34:00
3:54 PM,68.2,46.4,46,29.96,10.0,South,11.5,23.0,N/A,,Clear,190,2012-11-11 20:54:00
4:15 PM,67.5,46.4,47,29.96,10.0,South,15.0,28.8,N/A,,Clear,180,2012-11-11 21:15:00
4:34 PM,66.6,46.4,48,29.96,10.0,South,11.5,27.6,N/A,,Clear,190,2012-11-11 21:34:00
4:55 PM,65.3,46.2,50,29.95,10.0,South,12.7,26.5,N/A,,Clear,180,2012-11-11 21:55:00
5:14 PM,64.4,46.4,52,29.95,10.0,South,15.0,26.5,N/A,,Clear,180,2012-11-11 22:14:00
5:34 PM,63.5,46.4,54,29.95,10.0,South,13.8,26.5,N/A,,Clear,170,2012-11-11 22:34:00
5:55 PM,62.6,45.9,54,29.94,10.0,South,15.0,25.3,N/A,,Clear,180,2012-11-11 22:55:00
6:14 PM,61.9,45.5,55,29.95,10.0,South,13.8,21.9,N/A,,Clear,180,2012-11-11 23:14:00
6:35 PM,61.7,45.5,55,29.96,10.0,South,12.7,20.7,N/A,,Clear,170,2012-11-11 23:35:00
6:55 PM,61.2,45.0,55,29.95,10.0,South,12.7,20.7,N/A,,Clear,170,2012-11-11 23:55:00
7:14 PM,61.2,43.9,53,29.94,10.0,SSE,15.0,23.0,N/A,,Clear,160,2012-11-12 00:14:00
7:35 PM,61.2,41.5,48,29.93,10.0,South,17.3,28.8,N/A,,Clear,170,2012-11-12 00:35:00
7:54 PM,61.0,39.7,46,29.93,10.0,SSE,16.1,25.3,N/A,,Clear,160,2012-11-12 00:54:00
8:15 PM,61.3,38.1,42,29.93,10.0,South,19.6,29.9,N/A,,Scattered Clouds,170,2012-11-12 01:15:00
8:35 PM,61.9,36.9,39,29.94,10.0,South,15.0,27.6,N/A,,Mostly Cloudy,180,2012-11-12 01:35:00
8:54 PM,61.7,36.9,40,29.94,10.0,South,16.1,27.6,N/A,,Overcast,180,2012-11-12 01:54:00
9:15 PM,62.1,37.2,40,29.95,10.0,South,16.1,27.6,N/A,,Overcast,180,2012-11-12 02:15:00
9:35 PM,62.6,37.6,40,29.94,10.0,South,15.0,28.8,N/A,,Overcast,190,2012-11-12 02:35:00
9:54 PM,62.6,37.0,39,29.93,10.0,South,11.5,24.2,N/A,,Overcast,190,2012-11-12 02:54:00
10:15 PM,62.6,36.5,38,29.93,10.0,South,12.7,23.0,N/A,,Overcast,180,2012-11-12 03:15:00
10:34 PM,62.2,36.3,38,29.92,10.0,South,13.8,23.0,N/A,,Overcast,180,2012-11-12 03:34:00
10:54 PM,61.9,36.9,39,29.92,10.0,South,12.7,24.2,N/A,Rain,Light Rain,180,2012-11-12 03:54:00
11:15 PM,61.7,36.7,39,29.91,10.0,South,12.7,18.4,N/A,,Overcast,180,2012-11-12 04:15:00
11:34 PM,61.7,37.4,41,29.91,10.0,South,9.2,20.7,N/A,,Overcast,190,2012-11-12 04:34:00
11:54 PM,61.0,39.6,45,29.91,10.0,South,11.5,21.9,N/A,Rain,Light Rain,190,2012-11-12 04:54:00